D1Q73G Weather Reports


time (UTC)temp
F
wind
direction
speed
knots
gust
knots
rain 1hr
in
rain 24hr
in
rain mn
in
humidity
%
barometer
mb
20260506185812 55 92 0.9 1.7 0.00 0.02 0.00 75 1024.1
20260506184852 52 67 0.0 0.0 0.00 0.02 0.00 77 1024.2
20260506180611 52 165 0.9 1.7 0.00 0.02 0.00 77 1024.0
20260506174711 52 60 0.9 2.6 0.00 0.03 0.00 75 1023.9
20260506173710 53 90 0.0 0.0 0.00 0.04 0.00 73 1024.0
20260506172810 53 334 0.0 0.0 0.00 0.05 0.00 73 1023.9
20260506171811 54 157 0.0 0.0 0.00 0.06 0.00 71 1023.9
20260506165910 53 28 0.0 2.6 0.00 0.06 0.00 74 1023.9
20260506164922 52 148 0.0 0.9 0.00 0.06 0.00 74 1023.9
20260506163812 51 163 1.7 2.6 0.00 0.06 0.00 75 1023.8
20260506162910 51 112 1.7 3.5 0.00 0.06 0.00 76 1023.9
20260506162009 51 84 1.7 3.5 0.00 0.06 0.00 77 1023.9
20260506160012 50 360 0.0 0.0 0.00 0.06 0.00 85 1023.9
20260506155025 48 157 0.0 0.0 0.00 0.07 0.00 95 1023.7
20260506154009 45 112 0.0 0.0 0.00 0.07 0.00 97 1023.7
20260506153012 43 112 0.0 0.9 0.00 0.07 0.00 98 1023.5
20260506152111 41 17 0.0 0.0 0.00 0.07 0.00 97 1023.5
20260506151110 38 292 0.0 0.0 0.00 0.07 0.00 98 1023.1
20260506150209 37 292 0.0 0.0 0.00 0.07 0.00 97 1022.8
20260506144210 35 292 0.0 0.0 0.00 0.07 0.00 97 1022.8
20260506143211 35 292 0.0 0.0 0.00 0.07 0.00 98 1022.8
20260506142209 35 292 0.0 0.0 0.00 0.07 0.00 98 1022.7
20260506142128 35 292 0.0 0.0 0.00 0.07 0.00 98 1022.8
20260506141209 35 292 0.0 0.0 0.00 0.07 0.00 98 1022.5
20260506140211 35 292 0.0 0.0 0.00 0.07 0.00 97 1022.6
20260506135212 35 292 0.0 0.0 0.00 0.07 0.00 97 1022.4
20260506134209 35 292 0.0 0.0 0.00 0.07 0.00 97 1022.4
20260506132211 35 292 0.0 0.0 0.00 0.07 0.00 97 1022.1
20260506131212 36 292 0.0 0.0 0.00 0.07 0.00 97 1022.0
20260506130212 36 292 0.0 0.0 0.00 0.07 0.00 97 1022.1
20260506125212 36 292 0.0 0.0 0.00 0.07 0.00 97 1021.8
20260506124210 36 292 0.0 0.0 0.00 0.07 0.00 96 1021.9
20260506123210 36 292 0.0 0.0 0.00 0.07 0.00 97 1021.8
20260506122210 37 292 0.0 0.0 0.00 0.08 0.00 97 1021.8
20260506121309 37 292 0.0 0.0 0.00 0.08 0.00 97 1021.8
20260506120310 37 292 0.0 0.0 0.00 0.08 0.00 97 1021.8
20260506115311 38 292 0.0 0.0 0.00 0.08 0.00 96 1021.8
20260506114328 38 292 0.0 0.0 0.00 0.08 0.00 97 1021.8
20260506113312 38 292 0.0 0.0 0.00 0.08 0.00 97 1021.8
20260506112409 38 292 0.0 0.0 0.00 0.08 0.00 97 1021.8
20260506111412 39 292 0.0 0.0 0.00 0.08 0.00 96 1021.7
20260506110511 39 292 0.0 0.0 0.00 0.08 0.00 97 1021.7
20260506104511 39 292 0.0 0.0 0.00 0.08 0.00 97 1021.4
20260506103609 39 292 0.0 0.0 0.00 0.08 0.00 96 1021.3
20260506103509 39 292 0.0 0.0 0.00 0.08 0.00 97 1021.3
20260506102509 39 292 0.0 0.0 0.00 0.08 0.00 97 1021.3
20260506100511 39 292 0.0 0.0 0.00 0.08 0.00 97 1021.3
20260506095609 39 292 0.0 0.0 0.00 0.08 0.00 96 1021.2
20260506092710 40 292 0.0 0.0 0.00 0.08 0.00 96 1021.4
20260506091711 40 157 0.0 0.0 0.00 0.08 0.00 96 1021.3
20260506090809 40 157 0.0 0.0 0.00 0.08 0.00 95 1021.4
20260506085711 40 157 0.0 0.0 0.00 0.08 0.00 96 1021.5
20260506084711 40 157 0.0 0.0 0.00 0.08 0.00 96 1021.5
20260506083711 40 157 0.0 0.0 0.00 0.08 0.00 95 1021.6
20260506082712 40 157 0.0 0.0 0.00 0.08 0.00 95 1021.4
20260506080811 41 157 0.0 0.0 0.00 0.08 0.00 95 1021.5
20260506072727 42 157 0.0 0.0 0.00 0.08 0.00 95 1021.4
20260506071812 43 157 0.0 0.0 0.00 0.08 0.00 95 1021.3
20260506061816 43 157 0.0 0.0 0.00 0.08 0.08 93 1020.7
20260506060914 43 157 0.0 0.0 0.00 0.08 0.08 94 1020.8
20260506050817 44 157 0.0 0.0 0.00 0.08 0.08 93 1020.1
20260506044815 44 157 0.0 0.0 0.00 0.08 0.08 92 1020.0
20260506042814 44 157 0.0 0.0 0.00 0.08 0.08 93 1020.0
20260506041816 44 157 0.0 0.0 0.00 0.08 0.08 92 1019.9
20260506041730 44 157 0.0 0.0 0.00 0.08 0.08 91 1019.9
20260506040816 44 157 0.0 0.0 0.00 0.08 0.08 92 1019.8
20260506033815 44 157 0.0 0.0 0.00 0.08 0.08 91 1019.6
20260506032816 44 157 0.0 0.0 0.00 0.08 0.08 90 1019.4
20260506031815 45 157 0.0 0.0 0.00 0.08 0.08 91 1019.1
20260506030815 45 157 0.0 0.0 0.00 0.08 0.08 91 1018.9
20260506025816 45 157 0.0 0.0 0.00 0.08 0.08 91 1019.0
20260506024816 45 157 0.0 0.0 0.00 0.08 0.08 90 1018.9
20260506023915 45 157 0.0 0.0 0.00 0.08 0.08 90 1018.9
20260506022916 45 157 0.0 0.0 0.00 0.08 0.08 90 1018.8
20260506021916 45 157 0.0 0.0 0.00 0.08 0.08 90 1018.6
20260506020914 45 157 0.0 0.0 0.00 0.08 0.08 90 1018.6
20260506015915 45 157 0.0 0.0 0.00 0.08 0.08 90 1018.5
20260506014930 45 157 0.0 0.0 0.00 0.08 0.08 90 1018.2
20260506013015 45 180 0.9 1.7 0.00 0.08 0.08 90 1018.2
20260506012030 45 112 0.0 1.7 0.00 0.08 0.08 92 1018.2
20260506010115 45 67 0.0 0.0 0.00 0.08 0.08 91 1018.1
20260506010014 45 67 0.0 0.0 0.00 0.08 0.08 91 1018.2
20260506005015 45 180 0.0 0.0 0.00 0.08 0.08 91 1018.2
20260506004016 44 180 0.0 0.0 0.00 0.08 0.08 91 1018.1
20260506003015 44 179 0.0 0.9 0.00 0.08 0.08 92 1018.1
20260506002015 44 180 0.0 0.0 0.00 0.08 0.08 92 1018.2
20260505235116 43 112 0.0 0.0 0.00 0.08 0.08 93 1018.3
20260505234214 43 112 0.0 0.0 0.00 0.08 0.08 92 1018.3
20260505233230 43 112 0.0 0.0 0.00 0.08 0.08 92 1018.4
20260505232116 43 112 0.0 0.0 0.00 0.09 0.08 91 1018.6
20260505231114 43 112 0.0 0.0 0.00 0.09 0.08 91 1018.6
20260505230115 43 337 0.0 0.9 0.00 0.10 0.08 92 1018.6
20260505225115 43 45 0.0 0.0 0.01 0.10 0.08 92 1018.6
20260505224115 43 45 0.0 0.0 0.01 0.10 0.08 92 1018.5
20260505223214 43 67 0.0 0.0 0.01 0.10 0.08 93 1018.4
20260505223116 43 67 0.0 0.0 0.01 0.10 0.08 92 1018.4
20260505222116 43 112 0.0 0.0 0.02 0.10 0.08 92 1018.4
20260505221116 43 112 0.0 0.0 0.02 0.10 0.08 93 1018.5
20260505220114 43 90 0.9 3.5 0.02 0.10 0.08 93 1018.6
20260505215116 43 39 0.0 1.7 0.01 0.10 0.07 93 1018.5
20260505213115 44 112 0.0 0.0 0.01 0.11 0.07 91 1018.6
20260505213015 44 112 0.0 0.0 0.01 0.11 0.06 91 1018.6
20260505212016 44 112 0.0 0.0 0.00 0.10 0.06 91 1018.6
20260505211014 44 112 0.9 0.9 0.00 0.10 0.06 90 1018.4
20260505205015 45 112 0.0 0.0 0.00 0.10 0.06 90 1018.3
20260505204015 45 112 0.0 0.0 0.00 0.10 0.06 89 1018.1
20260505203114 45 112 0.0 0.0 0.00 0.10 0.06 90 1018.2
20260505202115 45 112 0.0 0.0 0.00 0.10 0.06 89 1018.2
20260505202016 45 112 0.0 0.0 0.00 0.10 0.06 89 1018.1
20260505200913 45 103 1.7 2.6 0.00 0.10 0.06 89 1018.1
20260505195915 45 112 0.0 0.0 0.00 0.10 0.06 91 1018.1
20260505194915 45 112 0.0 0.0 0.00 0.10 0.06 91 1018.1
20260505193916 45 90 0.0 0.0 0.00 0.10 0.06 90 1017.9
20260505193016 45 112 0.0 0.9 0.00 0.10 0.06 91 1017.9
20260505192017 45 90 0.0 0.9 0.00 0.10 0.06 92 1017.8
20260505191931 45 90 0.0 0.0 0.00 0.10 0.06 91 1017.8
20260505191016 45 67 0.9 0.9 0.00 0.10 0.06 92 1017.8